Location: Montbazon
(47.2835°N, 0.6999°E)
Time: 05:26:05
(UTC+00:00)

Cosmos 2360 Rocket - Pass Details

Date: 08 November 2025
Orbit: 833 x 843 km, 71.0° (Epoch: 10 December)

Event Time Altitude Azimuth Distance (km) Brightness Sun altitude
Exits shadow 05:41:11 12° 310° (NW) 2,306 3.9 -12.1°
Maximum altitude 05:42:37 13° 326° (NW) 2,238 4.0 -11.9°
Drops below altitude 10° 05:45:18 10° 354° (N) 2,473 4.5 -11.4°
Sets 05:49:14 0° 21° (NNE) 3,410 5.5 -10.8°
